Location: Home
(42.5358°N, 72.7383°W)
Time: 15:56:29
(UTC-05:00)

Vanguard 3 - Pass Details

Date: 07 December 2021
Orbit: 508 x 3260 km, 33.3° (Epoch: 20 January)

Event Time Altitude Azimuth Distance (km) Brightness Sun altitude
Rises 03:57:16 0° 251° (WSW) 6,887 - -34.2°
Reaches altitude 10° 04:01:42 10° 248° (WSW) 6,041 - -33.4°
Exits shadow 04:10:42 35° 237° (WSW) 4,455 10.4 -31.7°
Maximum altitude 04:21:06 62° 174° (S) 3,396 10.1 -29.8°
Drops below altitude 10° 04:37:04 10° 99° (E) 5,093 12.2 -26.9°
Sets 04:40:26 0° 97° (E) 5,801 12.9 -26.2°
